Tracking 22124 objects as of 23-Jan-2021
HD Live streaming from Space Station
objects crossing your sky now

LEMUR 2 OSCARLATOR

Track LEMUR 2 OSCARLATOR now!
10-day predictions
LEMUR 2 OSCARLATOR is classified as:


NORAD ID: 46299
Int'l Code: 2020-061AD
Perigee: 538.6 km
Apogee: 541.5 km
Inclination: 97.5 °
Period: 95.3 minutes
Semi major axis: 6911 km
RCS: Unknown
Launch date: September 3, 2020
Source: United States (US)
Launch site: FRENCH GUIANA (FRGUI)
aabbcc
Your satellite tracking list
Your tracking list is empty




NASA's NSSDC Master Catalog

Two Line Element Set (TLE):
1 46299U 20061AD  21023.21431276  .00001632  00000-0  10127-3 0  9999
2 46299  97.5054  99.7509 0002101 127.4539 232.6882 15.11085645 21398
Source of the keplerian elements: AFSPC